GFSSW_prec_cloud_003.txt.gz
Cloud_Cover
8 5 9 100 99 100 100 100 100 100 100 100 100 100 95 100 100 100 100 99 5 5 76 88 97 72 95 100 100 100 81 100 23 100 98 95 100 100 100 82 0 18 50 94 100
0 0 3 18 94 100 100 100 100 100 100 100 100 100 100 100 100 100 100 90 69 32 46 96 100 100 95 100 100 94 100 100 82 56 93 100 100 100 91 14 5 9 39 99 100
15 5 5 8 37 100 100 100 100 100 100 100 100 100 100 100 100 100 100 100 99 91 100 100 78 95 98 70 98 97 100 88 100 100 100 100 100 100 19 22 25 100 84 100 100
34 5 6 98 100 5 88 97 100 100 100 100 100 100 100 100 100 100 100 100 100 99 64 87 89 62 100 100 100 100 100 100 100 100 100 100 100 98 100 73 95 17 92 96 60
100 90 22 5 7 35 89 95 54 26 100 100 100 100 100 100 100 97 100 100 79 97 100 100 91 100 99 100 100 100 100 100 100 100 46 99 100 81 57 32 90 23 76 100 54
100 100 100 76 51 100 100 100 62 76 100 92 100 100 100 100 100 100 100 100 100 100 100 100 100 100 100 100 100 100 100 100 100 100 100 100 98 84 28 74 100 98 100 100 100
100 100 100 100 100 100 100 100 100 100 100 100 100 77 100 100 100 100 100 100 98 98 100 100 100 100 100 100 100 100 100 100 100 100 16 35 100 87 98 81 91 100 94 100 99
92 100 100 100 86 52 96 100 100 87 100 100 100 89 100 100 86 100 100 95 98 100 100 100 100 100 100 100 100 100 100 93 42 83 100 100 84 99 81 16 5 100 98 94 98
59 68 100 100 100 100 100 85 100 86 84 100 84 76 100 100 59 97 86 100 100 100 100 100 100 100 100 100 100 100 99 100 100 100 100 25 24 76 90 41 84 100 100 99 91
0 30 24 84 100 100 100 100 100 100 100 100 87 98 88 100 85 5 10 100 100 100 100 100 100 100 100 100 100 100 93 17 34 82 100 100 52 82 68 15 88 94 34 4 0
0 3 3 100 5 96 100 100 100 100 100 100 100 100 100 100 100 88 100 100 65 99 100 100 100 100 100 61 100 96 100 100 100 72 54 71 31 24 65 21 0 0 0 0 0
0 5 90 100 4 2 75 54 58 78 100 100 100 100 52 100 100 100 100 100 100 100 100 100 100 100 4 25 100 100 100 37 5 5 81 27 5 4 1 0 0 0 0 0 0
0 1 5 87 3 0 0 1 0 0 9 99 54 100 100 100 17 85 100 100 100 99 100 100 100 58 19 100 67 5 13 2 5 35 65 3 0 5 5 0 0 0 0 0 0
0 0 4 5 3 17 0 0 0 2 0 3 5 57 100 100 100 100 81 43 21 98 97 86 9 8 88 2 7 75 3 0 3 5 5 6 0 5 1 0 0 0 0 0 0
0 0 3 5 74 2 78 0 5 0 0 0 2 0 2 3 98 99 2 0 66 95 3 86 0 0 0 2 1 0 1 5 5 5 4 5 2 0 5 7 0 0 2 0 0
17 5 0 16 22 0 98 0 0 0 0 1 0 28 4 13 46 4 0 0 0 12 5 2 5 0 4 0 0 0 1 0 5 5 0 2 3 5 9 33 0 0 4 0 0
34 15 5 84 82 45 74 2 0 0 3 0 1 94 8 0 5 0 0 0 0 5 4 1 0 0 0 0 0 0 0 0 4 7 4 38 5 0 0 3 0 0 5 0 0
8 98 29 6 97 100 51 89 3 0 0 4 0 2 5 0 0 0 0 0 0 0 0 0 0 0 0 0 0 5 5 0 5 48 34 58 4 4 0 0 0 0 0 0 0
87 100 100 99 98 100 100 55 0 0 2 2 9 1 4 25 2 0 0 0 4 4 0 0 0 0 0 0 3 8 2 2 5 2 20 55 11 7 1 8 9 1 1 4 0
89 100 99 100 32 100 100 36 0 0 0 48 2 75 74 24 62 1 0 2 9 7 5 0 0 0 0 0 5 5 3 2 5 5 29 48 19 100 1 56 18 0 3 0 0
100 100 7 40 100 100 100 65 0 0 2 51 100 100 100 100 33 32 5 4 5 9 5 0 1 0 1 12 39 5 18 5 24 26 26 87 46 94 25 24 54 41 0 0 0
100 97 100 65 100 100 40 5 2 1 91 100 31 6 31 100 100 92 27 0 0 3 0 0 0 0 1 1 0 10 70 93 100 36 5 34 100 15 1 34 50 98 0 0 0
86 78 38 95 100 75 28 29 98 39 99 100 82 25 70 33 100 100 72 76 1 4 3 2 0 0 33 12 98 100 100 100 68 87 46 5 6 34 5 0 32 100 0 0 4
100 98 96 56 100 92 100 100 100 72 62 100 100 100 2 0 2 31 100 100 17 0 5 5 0 0 1 81 63 99 99 87 58 100 5 53 33 52 5 23 28 84 2 0 2
69 64 78 40 53 12 89 100 87 100 55 100 93 100 95 4 92 5 100 100 99 4 3 2 0 0 4 4 1 5 5 5 26 82 6 100 89 17 94 98 50 97 3 0 0
100 80 74 81 100 100 100 6 100 100 100 89 90 100 100 100 96 100 100 100 100 96 5 2 0 0 0 2 1 5 5 5 69 100 73 100 100 6 22 11 100 97 9 0 0
91 98 55 100 100 100 100 100 97 100 90 98 100 78 100 95 100 18 97 92 100 100 34 5 4 0 0 0 4 2 20 86 80 100 100 100 99 5 5 18 24 60 5 0 0

GFSSW_prec_cloud_006.txt.gz
Cloud_Cover
4 0 0 4 5 20 72 100 100 100 100 100 100 100 100 100 100 100 98 86 100 100 18 97 100 100 56 100 100 96 9 100 100 100 100 100 98 96 94 58 100 100 100 100 34
5 5 2 1 0 5 5 69 100 100 100 100 100 100 100 100 100 100 100 23 64 85 94 100 72 73 21 70 89 90 90 100 100 100 100 100 100 100 100 100 100 100 100 99 91
20 35 5 1 0 1 5 56 99 94 100 100 100 100 100 96 100 100 100 100 100 89 100 100 100 100 100 100 100 99 60 100 99 100 100 100 89 100 100 100 100 99 29 6 8
85 5 5 5 5 0 0 5 99 100 100 100 100 100 100 100 97 100 100 100 100 85 38 60 100 100 100 100 100 100 80 100 100 100 45 61 100 100 100 100 100 100 88 39 92
100 99 34 5 49 85 17 5 5 96 100 100 91 96 100 45 100 100 100 100 100 100 96 100 99 100 100 99 89 72 100 100 100 100 100 100 100 100 100 100 88 60 5 73 30
100 100 100 100 100 100 89 58 23 5 29 80 39 67 6 5 100 100 31 100 100 100 100 100 100 100 53 46 100 100 100 100 100 100 100 100 100 100 72 55 5 6 100 46 23
78 100 100 100 100 100 100 100 100 100 100 89 71 5 0 10 100 100 81 100 100 100 100 100 100 62 100 100 100 100 100 100 100 100 100 100 100 18 8 100 96 100 6 29 68
1 85 86 100 96 98 100 74 97 100 100 36 5 5 0 100 99 63 100 100 100 100 100 100 80 100 100 100 100 100 100 100 100 100 100 100 100 100 100 97 62 64 74 80 81
1 0 27 100 100 97 100 100 47 99 100 100 29 5 3 100 39 100 8 100 100 100 100 99 83 100 100 100 100 100 86 100 100 100 100 100 100 100 54 26 90 71 5 1 0
0 0 0 0 0 45 18 100 100 100 93 100 48 14 88 100 77 65 100 100 100 100 100 100 100 100 100 100 100 100 100 100 90 76 100 100 84 5 36 24 48 32 78 88 1
0 0 0 0 0 0 0 1 100 100 100 60 80 28 100 100 100 100 93 54 99 81 100 100 95 93 100 100 100 100 100 100 100 100 100 33 60 100 51 5 0 92 100 27 4
5 0 0 0 0 0 4 17 0 48 100 100 100 100 100 100 100 100 60 3 23 17 100 82 68 100 96 100 100 100 100 100 100 100 51 30 11 28 2 0 0 1 1 3 3
1 0 0 0 0 0 0 0 0 0 0 100 100 100 100 93 100 100 100 98 42 56 32 86 100 100 62 79 100 100 100 97 98 100 72 25 5 1 34 99 53 90 1 0 0
0 0 0 0 0 9 60 0 0 0 0 4 100 100 100 100 100 100 100 100 100 100 100 100 100 100 96 100 100 100 100 96 100 100 6 46 12 35 1 10 26 55 0 0 0
1 0 0 0 0 28 51 98 79 0 0 0 0 22 99 23 100 100 100 100 100 100 97 100 100 100 100 100 68 60 20 88 71 5 9 3 0 0 5 9 100 38 2 0 0
1 38 5 1 7 0 25 48 9 1 0 0 0 0 0 3 12 100 66 98 100 100 89 52 40 21 10 33 47 19 11 31 5 5 3 0 3 0 16 99 12 4 0 0 0
5 5 40 26 4 90 100 50 89 4 0 0 0 0 3 3 4 14 20 5 6 46 100 99 62 44 46 4 30 4 34 18 21 3 0 0 4 4 27 2 1 0 30 1 0
2 6 21 53 17 100 100 29 78 0 0 0 0 2 3 15 11 35 5 1 0 0 2 0 0 6 4 1 3 5 5 3 4 1 3 97 98 59 4 0 0 0 0 0 0
5 32 94 35 17 89 100 100 0 0 0 0 9 94 70 70 44 5 0 0 0 5 4 20 5 0 0 0 3 5 1 0 0 4 64 58 60 100 86 0 0 23 0 0 0
64 91 59 45 36 100 100 89 1 0 0 32 1 100 100 99 100 89 0 0 0 0 4 0 0 0 0 4 4 3 1 0 0 0 5 4 5 88 42 32 6 5 50 0 0
99 99 99 24 95 100 100 4 0 0 0 100 18 70 52 100 100 99 78 0 5 0 0 0 0 0 5 0 3 5 5 2 0 5 5 5 14 94 35 26 7 2 0 0 0
100 99 58 97 80 100 100 52 33 30 5 100 100 99 6 100 100 100 65 2 0 4 0 0 0 1 1 1 1 0 3 1 26 9 5 15 100 61 88 28 2 0 21 3 0
100 77 10 88 100 99 25 69 77 100 52 100 100 99 99 100 5 87 5 62 0 4 0 1 0 0 1 88 58 0 0 5 27 39 56 97 22 5 22 4 0 1 3 3 0
66 80 72 98 100 93 100 96 91 81 98 61 100 100 100 70 7 8 5 100 99 4 2 8 0 0 0 4 100 82 98 99 100 83 22 65 34 100 96 22 1 1 0 0 0
92 50 78 87 90 92 97 87 100 89 95 82 100 100 100 93 12 49 98 100 100 100 81 5 3 0 0 0 71 1 3 94 15 87 13 89 6 93 42 25 5 5 19 0 0
100 91 33 18 31 100 92 65 100 100 100 38 100 100 100 100 100 99 85 95 100 100 100 99 5 0 0 0 79 80 4 0 46 5 96 98 5 44 99 22 100 28 66 35 0
86 63 74 16 97 98 80 100 99 75 18 78 12 100 100 100 100 100 100 41 12 83 100 98 5 0 0 0 5 100 16 8 76 6 8 94 97 6 56 91 8 71 5 12 1

GFSSW_prec_cloud_012.txt.gz
Cloud_Cover
11 16 66 100 100 100 100 89 100 100 100 100 100 100 100 100 95 19 100 100 97 99 100 100 100 100 21 91 5 4 47 100 97 58 29 100 59 75 56 60 9 52 7 100 100
0 0 2 54 100 100 100 100 100 100 100 88 100 100 100 100 62 91 100 92 76 93 100 100 100 25 95 80 27 13 100 100 94 77 97 75 74 85 42 95 82 75 5 86 100
0 0 0 0 9 100 100 100 100 100 100 100 100 89 71 100 100 100 100 100 100 100 100 100 100 59 11 51 75 30 100 94 96 100 100 50 77 100 46 96 20 5 95 100 100
0 0 1 0 3 0 81 100 100 100 100 100 100 100 98 100 60 100 100 100 100 100 87 100 100 100 70 49 100 5 21 77 99 94 74 96 94 100 100 100 38 5 98 100 96
0 0 0 0 0 0 0 24 100 100 100 87 91 100 57 70 100 100 100 100 100 100 94 100 100 100 90 49 73 8 42 17 100 100 100 77 76 100 100 23 4 76 100 100 98
0 0 0 0 0 0 0 0 4 5 8 86 30 100 36 100 100 100 100 100 100 100 100 100 100 100 100 100 23 95 97 100 100 95 92 27 90 97 98 99 93 100 100 18 94
0 0 0 0 0 0 1 2 87 82 13 4 15 81 73 99 100 100 100 100 99 100 100 100 100 100 100 96 100 100 100 100 100 70 97 12 100 81 92 72 98 78 98 100 100
13 0 0 1 0 0 0 4 42 100 100 6 24 100 50 95 100 88 63 86 7 44 83 100 100 20 94 89 89 100 12 36 82 4 58 32 63 11 92 100 100 100 100 100 100
0 0 0 7 3 0 0 0 15 100 91 100 91 95 11 3 17 100 70 10 100 92 100 100 54 5 5 2 3 5 8 98 10 6 72 8 31 100 100 100 100 100 100 100 100
0 0 0 1 18 0 0 0 0 0 4 90 89 79 4 100 100 41 3 5 37 75 32 62 29 4 0 3 57 54 88 1 17 14 5 4 76 100 100 100 100 100 100 100 56
57 0 0 0 0 0 3 0 0 0 0 0 2 10 26 86 72 100 100 98 100 12 1 35 9 0 91 100 90 5 0 0 65 65 35 100 100 100 100 100 100 100 100 13 5
0 0 22 0 2 0 29 16 0 34 19 0 2 3 2 98 100 100 100 50 60 46 100 30 0 98 100 18 3 0 2 74 100 96 5 100 100 100 100 100 100 42 5 5 37
0 0 0 0 0 0 1 0 0 44 38 0 0 0 0 78 99 100 100 100 85 100 30 4 96 100 100 8 0 6 94 100 100 93 92 100 100 100 82 98 15 41 16 0 4
0 0 0 0 16 0 0 0 19 100 31 1 0 0 0 66 77 100 100 100 100 100 100 76 100 54 24 4 92 97 100 100 100 100 100 100 100 14 35 40 82 65 51 1 0
0 0 0 8 93 23 0 0 21 13 2 0 0 0 0 0 6 98 100 100 99 100 100 70 100 100 99 100 89 100 75 64 100 100 100 82 55 1 100 100 52 50 2 0 0
0 0 0 12 71 17 0 0 76 18 25 0 0 0 0 0 0 4 0 66 93 45 48 100 100 56 48 62 1 100 2 30 46 32 100 20 26 100 84 71 4 3 0 3 1
0 0 41 31 70 1 0 2 4 50 0 0 1 0 0 0 0 3 5 0 40 63 29 100 100 100 100 100 100 100 92 27 70 100 99 46 100 100 30 4 4 3 2 96 48
0 29 38 9 0 5 51 43 82 0 0 0 0 0 0 0 0 3 5 0 0 13 100 100 100 100 100 100 100 100 100 92 100 100 100 100 100 5 17 5 5 0 5 100 5
13 71 13 0 5 9 100 100 93 82 0 0 8 44 10 0 0 0 0 0 0 0 99 100 100 100 100 100 100 100 100 100 92 100 100 92 5 5 19 5 3 0 1 99 15
96 45 11 5 13 77 100 54 83 90 9 0 93 100 100 50 2 0 0 0 0 0 0 91 100 100 100 100 100 99 93 5 71 100 98 14 5 5 7 2 0 0 14 90 0
74 49 33 98 100 100 100 82 65 5 5 33 17 100 100 93 49 29 3 1 0 2 0 1 99 100 100 21 98 100 96 15 69 90 88 6 5 7 12 5 3 4 55 0 0
6 76 4 100 100 95 100 92 67 5 5 5 61 100 100 100 52 100 6 3 2 0 0 0 0 46 14 100 69 5 5 3 2 4 0 0 68 6 0 0 3 9 5 2 0
53 14 71 100 100 100 95 100 84 81 98 5 5 100 100 100 100 96 53 48 5 0 0 27 0 0 0 0 0 0 4 5 4 0 0 24 2 0 0 0 0 5 15 4 0
36 45 51 100 100 100 45 100 100 48 5 5 5 64 100 100 100 100 100 98 5 5 5 3 5 2 0 0 0 0 0 0 0 0 3 0 0 0 4 5 4 5 22 0 0
51 33 91 55 91 99 78 53 88 46 29 5 5 59 100 100 100 100 100 79 79 8 1 3 3 2 6 0 0 0 0 0 0 0 0 0 1 5 4 5 4 5 4 3 0
100 73 100 99 6 9 93 100 99 100 95 8 70 99 100 100 100 100 100 100 100 84 3 5 5 5 5 5 0 0 0 0 0 0 0 0 4 5 5 5 8 5 5 3 0
94 99 100 82 34 78 99 100 100 100 96 44 45 99 100 100 100 100 100 100 100 100 5 0 3 5 5 5 4 0 0 0 2 0 0 0 2 0 33 5 52 29 6 1 0

GFSSW_prec_cloud_015.txt.gz
Cloud_Cover
73 93 55 88 96 100 100 100 100 100 100 100 100 100 100 100 98 89 100 100 94 57 100 100 100 93 61 9 66 5 9 66 100 90 32 98 55 97 68 100 53 16 5 85 99
1 12 34 58 79 100 100 100 100 100 96 98 86 60 100 100 58 92 100 72 64 95 100 100 100 42 15 82 6 48 9 70 81 53 92 70 64 90 44 72 6 39 85 100 100
0 0 6 2 41 45 14 18 85 100 100 100 97 79 99 100 98 100 100 100 100 79 100 100 100 63 31 100 98 5 5 99 100 99 37 62 94 100 10 96 72 96 5 97 56
0 0 0 0 0 0 0 2 23 100 100 100 100 100 35 96 97 100 100 100 100 100 100 100 100 100 100 100 100 1 14 92 61 100 58 28 19 12 36 100 73 32 11 72 95
28 21 9 0 0 0 0 0 5 3 91 100 100 100 95 75 95 100 100 100 100 100 100 100 100 100 100 100 85 5 96 24 89 100 100 95 54 50 98 46 41 5 34 72 81
2 11 25 20 15 0 0 0 0 1 2 47 60 100 100 100 100 100 100 100 100 100 100 100 100 100 28 99 45 78 33 100 100 100 100 73 54 89 98 28 18 4 18 94 93
0 0 4 38 100 88 16 0 0 0 0 0 1 97 100 100 100 100 81 100 100 100 100 100 100 100 100 100 100 100 100 100 100 100 100 100 37 100 90 5 0 2 66 100 99
0 0 0 0 0 6 47 0 2 0 0 0 4 89 100 100 100 100 100 100 100 98 100 100 100 15 22 100 100 100 100 100 100 100 100 70 99 96 5 0 66 81 6 59 97
0 0 0 0 0 0 0 0 24 0 6 78 98 100 53 5 7 100 71 77 100 100 100 100 100 100 100 100 100 100 100 100 100 100 16 5 81 5 5 9 100 36 84 100 72
0 0 0 0 0 0 0 0 0 0 2 55 80 60 0 100 99 96 47 69 95 43 44 93 46 11 100 63 100 100 91 20 100 82 50 1 37 2 35 36 100 100 100 42 55
17 0 0 0 0 0 61 19 0 0 10 3 0 0 0 100 100 100 100 40 100 53 5 98 80 48 100 100 20 38 5 16 100 83 9 0 4 20 54 100 100 100 100 100 9
0 0 2 0 0 0 83 0 96 83 56 0 0 0 0 1 95 100 100 82 69 47 100 66 0 5 7 12 34 5 4 75 100 73 0 3 0 48 100 100 100 100 98 10 5
0 1 0 0 0 31 5 0 81 100 52 4 0 0 0 0 0 99 100 100 100 99 68 4 54 100 100 97 8 5 69 100 100 5 3 0 20 16 98 100 100 100 38 5 5
0 0 0 0 1 18 15 0 94 100 93 2 0 0 0 0 0 3 96 100 98 96 100 91 80 97 34 5 73 68 100 98 97 8 0 0 27 99 100 100 100 99 5 60 13
0 0 0 0 100 99 0 0 24 99 5 0 0 0 0 0 0 3 0 100 99 15 96 100 100 100 92 90 100 100 100 100 96 0 0 15 100 100 100 100 100 15 3 42 8
0 1 6 70 64 10 2 0 2 58 29 0 5 2 0 0 0 0 2 1 5 0 3 100 98 69 49 100 100 100 66 29 1 0 18 99 61 25 42 80 25 4 70 6 1
0 32 100 100 14 0 4 3 45 81 0 0 55 97 2 0 0 0 1 0 0 0 0 96 94 100 100 18 7 68 1 0 0 20 100 43 0 10 5 47 99 5 5 3 2
2 26 84 85 2 1 81 39 98 2 2 8 22 100 86 4 0 0 0 0 0 0 0 2 15 100 100 94 100 100 99 52 89 100 100 2 24 5 74 100 30 5 5 4 3
8 6 65 6 19 52 91 87 8 5 4 5 11 100 100 100 92 2 0 0 0 5 0 0 39 100 100 100 100 100 98 88 89 34 3 0 100 100 100 100 6 5 5 5 16
100 98 5 46 19 96 81 89 5 5 6 3 5 100 100 100 100 88 0 0 0 3 0 0 0 95 100 100 95 100 26 93 6 1 21 99 100 100 100 95 4 10 29 15 95
26 61 5 84 100 100 100 100 90 100 100 36 5 37 100 100 100 100 88 54 2 0 0 3 0 0 63 6 16 49 57 2 2 41 95 100 100 100 100 24 6 8 8 84 0
32 38 6 98 100 100 100 100 78 90 64 59 6 5 100 100 100 100 100 100 52 2 0 0 2 0 1 40 47 50 47 100 100 100 99 36 100 100 98 6 4 4 97 0 0
100 43 7 100 100 100 100 100 100 100 22 68 14 2 100 100 100 100 100 100 100 100 5 0 0 5 0 2 1 0 84 100 90 5 100 100 99 100 100 33 1 5 5 5 0
74 67 69 98 96 85 100 74 6 94 43 2 10 15 99 100 100 100 100 100 100 100 88 49 0 2 0 1 26 97 100 100 100 60 100 100 88 55 2 0 5 5 5 5 5
9 42 78 100 100 100 100 100 67 85 5 56 32 15 98 100 100 100 100 100 100 100 100 73 2 5 5 3 0 0 16 42 61 100 34 64 1 0 0 3 2 5 5 5 5
87 98 91 100 100 56 22 100 60 77 100 12 80 89 99 100 100 100 100 100 100 100 100 96 0 0 5 5 5 4 0 0 0 0 0 0 4 0 0 0 4 5 5 31 5
13 66 100 90 93 88 100 100 44 80 97 91 61 5 77 100 100 100 100 100 100 100 100 99 5 0 5 5 5 0 0 4 0 0 0 11 97 5 3 12 3 21 10 8 5

GFSSW_prec_cloud_021.txt.gz
Cloud_Cover
99 91 100 100 13 52 97 100 100 100 100 100 100 100 100 100 100 100 100 100 100 100 88 100 100 91 34 99 87 48 86 100 100 100 100 73 96 6 5 5 5 6 5 88 86
93 100 100 100 67 38 7 100 100 100 100 100 98 32 94 100 100 100 100 100 100 9 7 100 100 100 86 25 30 85 92 100 100 100 66 56 92 7 5 4 51 5 80 26 44
8 100 100 22 54 75 99 99 100 100 100 100 100 100 81 93 100 100 100 100 100 12 61 89 98 100 70 99 88 87 96 100 91 100 11 12 15 26 40 14 45 10 100 100 93
4 73 12 1 6 77 100 100 100 100 100 100 100 100 100 100 100 100 100 100 100 100 100 100 62 75 93 34 100 7 100 71 62 100 5 9 81 100 25 98 56 98 7 5 11
0 12 17 45 100 100 98 91 23 66 68 100 100 100 100 100 97 100 100 100 100 100 98 100 90 26 19 70 54 11 28 5 16 100 29 90 100 100 100 97 51 9 5 5 18
0 22 0 0 99 100 100 78 14 0 3 100 75 37 84 100 100 100 100 100 100 100 100 92 41 66 23 5 6 25 51 27 65 97 97 71 68 100 100 100 26 46 5 5 10
28 0 0 0 79 100 100 50 2 0 9 100 100 98 77 66 95 100 100 100 100 100 30 54 100 36 5 3 1 5 5 5 5 100 97 99 73 100 93 92 11 5 45 6 98
0 6 0 0 32 99 24 0 0 5 30 51 100 100 27 0 4 39 89 100 100 98 100 100 93 17 5 97 96 96 13 7 9 100 100 100 100 17 100 11 5 23 100 99 96
0 6 0 0 27 0 0 0 0 0 0 77 62 72 13 0 0 0 7 4 4 2 20 100 78 5 5 5 2 0 49 100 100 100 100 99 4 5 100 35 32 100 100 12 40
1 0 0 0 25 1 0 0 0 0 0 2 7 1 0 0 0 0 0 0 0 0 8 98 8 4 0 4 4 64 32 97 5 38 68 4 8 4 86 100 100 100 87 30 3
11 8 0 100 18 0 1 0 0 0 0 0 0 0 0 0 0 0 0 0 0 0 0 2 5 0 0 0 2 4 0 3 100 100 35 52 59 99 100 100 17 100 100 8 0
0 1 85 3 0 0 0 0 17 62 46 0 0 0 0 0 0 0 0 0 0 0 0 1 0 0 22 83 6 0 0 2 3 5 4 3 0 0 37 92 5 100 6 2 0
0 2 7 8 0 52 21 0 0 11 77 0 0 0 0 0 0 0 0 0 0 0 0 0 0 24 1 58 5 4 0 5 15 93 88 35 2 0 0 0 0 0 1 5 0
0 0 0 0 2 24 1 0 0 2 74 0 0 0 0 0 0 0 0 0 0 0 0 0 0 0 0 0 0 0 55 100 65 100 7 100 16 0 0 0 0 2 5 0 4
0 0 3 100 98 88 0 0 0 8 0 0 30 5 5 4 32 0 0 0 0 0 0 0 0 0 0 4 77 67 100 100 99 19 78 11 6 21 0 0 4 41 0 5 94
0 0 18 62 100 18 0 0 1 52 2 0 3 29 80 13 33 1 0 0 0 0 0 0 0 0 0 10 94 100 39 5 86 100 73 4 4 95 18 36 3 0 43 79 100
1 0 50 100 87 64 3 3 18 34 0 14 2 0 0 14 95 5 3 17 0 0 0 0 0 0 0 0 13 10 5 2 64 31 4 0 0 100 58 4 4 7 18 82 6
14 0 2 8 94 81 66 78 95 4 6 6 4 3 4 0 24 100 10 54 0 1 4 0 0 0 0 0 1 89 98 7 4 2 0 0 16 100 65 1 2 39 5 15 28
0 0 5 5 77 75 83 95 74 11 18 11 0 4 2 7 50 100 100 100 5 54 14 0 0 0 0 0 0 39 2 62 5 0 0 0 100 100 5 90 18 5 14 95 4
22 3 4 89 100 98 95 100 96 100 92 55 89 5 5 38 16 100 100 100 90 22 4 1 0 0 0 0 0 12 82 4 0 0 91 98 100 100 28 100 67 5 11 68 5
2 0 8 81 99 100 100 86 100 100 97 81 95 50 61 20 27 100 100 100 100 83 6 2 0 0 0 0 0 0 4 0 0 7 100 100 100 100 93 100 14 11 97 14 29
82 4 5 46 17 100 100 100 75 26 96 94 99 97 79 34 100 100 100 100 100 100 97 3 3 0 0 0 0 0 23 3 2 27 100 100 100 52 100 64 95 98 100 94 100
74 81 4 40 39 94 81 11 33 40 83 99 85 83 100 61 100 100 100 77 100 100 100 90 6 1 0 0 0 0 0 5 0 0 14 100 100 6 100 96 5 80 100 100 61
6 16 4 54 12 74 71 47 54 16 74 97 37 98 48 5 82 100 100 100 100 100 100 100 81 2 0 0 0 0 0 0 0 0 5 100 100 76 100 74 5 100 100 100 64
27 10 43 80 87 100 98 43 95 86 42 84 95 100 100 66 89 100 100 100 100 100 100 91 32 5 0 0 0 0 0 7 86 100 100 100 84 100 100 32 87 100 100 100 24
62 59 69 96 100 95 97 100 65 79 86 68 73 68 42 82 100 100 100 100 100 100 100 96 80 5 0 0 0 0 0 0 93 100 100 100 54 100 79 6 100 100 100 54 2
100 100 99 13 76 100 100 100 100 100 17 65 56 90 33 5 20 100 100 100 100 100 100 100 100 11 0 0 0 0 0 0 100 100 100 91 100 100 100 100 84 100 87 5 5

GFSSW_prec_cloud_024.txt.gz
Cloud_Cover
15 98 100 100 100 100 98 100 89 100 100 100 100 100 100 100 100 100 100 100 100 100 100 100 100 100 100 100 100 100 100 96 80 100 100 34 48 5 86 100 100 97 5 5 5
0 0 0 3 100 100 100 100 100 100 99 100 100 100 100 100 100 100 100 100 100 100 100 100 100 100 100 100 100 100 94 100 100 54 97 84 18 7 21 99 60 5 5 5 97
0 0 0 17 94 85 100 100 100 97 100 52 20 100 100 100 100 100 100 100 100 100 100 99 98 100 60 21 26 71 62 63 63 85 90 31 83 79 53 92 93 42 6 66 55
0 0 47 0 64 91 100 100 100 100 100 100 86 11 100 100 100 100 100 100 100 100 100 100 95 57 31 73 31 18 93 60 97 100 96 51 15 96 100 100 100 4 5 75 11
15 0 0 15 16 91 100 98 100 24 88 100 86 5 42 95 100 100 100 100 100 100 100 85 32 77 5 59 89 100 14 21 100 100 12 85 67 100 100 85 100 2 16 85 5
90 2 0 0 0 98 100 100 17 0 6 38 97 93 4 21 100 100 100 100 99 100 98 100 72 85 100 9 28 91 4 23 100 57 94 95 100 100 100 100 46 5 91 100 61
53 0 0 0 29 49 83 6 0 0 9 69 75 62 36 50 51 10 100 100 98 9 10 18 10 85 100 100 100 79 5 3 14 22 75 21 34 98 59 100 32 5 6 5 67
0 0 0 0 0 45 2 0 0 0 1 32 98 100 9 2 8 5 3 76 100 100 28 2 1 0 1 68 100 100 100 93 98 100 92 76 4 100 77 100 12 6 5 6 21
0 0 0 0 0 0 0 0 0 0 0 23 33 30 0 0 0 5 2 0 0 2 6 10 92 7 0 1 4 84 100 100 100 99 80 88 21 98 72 100 8 17 5 83 100
75 0 0 0 0 0 0 0 0 0 0 0 0 0 0 0 0 0 0 0 0 0 0 0 0 6 0 0 0 57 1 2 3 52 74 32 50 1 5 5 5 12 100 100 100
6 28 5 4 4 0 0 0 0 0 0 0 0 0 0 0 0 0 0 0 0 0 0 0 0 0 1 0 0 3 2 1 5 14 5 0 0 0 28 2 90 74 100 100 100
48 12 64 6 60 7 4 1 4 9 23 0 0 0 0 0 0 0 0 0 0 0 0 0 0 0 0 0 0 3 0 0 0 0 3 2 0 0 10 3 2 5 36 0 0
0 0 1 3 3 14 2 2 1 82 58 0 0 0 0 0 0 0 0 0 0 0 0 0 0 32 0 0 0 0 0 3 4 66 77 4 1 0 0 2 0 0 0 0 0
0 0 0 0 9 4 5 4 13 73 42 0 0 1 1 0 0 0 0 0 0 0 0 0 0 0 0 0 0 0 0 1 26 100 0 5 1 0 0 0 0 0 0 0 0
0 17 1 0 6 4 5 2 33 77 1 0 3 20 5 7 10 46 0 0 0 0 1 0 0 0 0 0 0 0 0 0 8 3 0 0 15 0 0 0 0 0 0 0 0
4 5 3 4 70 42 46 2 61 87 75 46 85 91 88 100 95 5 4 2 0 0 4 0 0 0 0 0 0 0 0 0 5 0 0 0 5 2 27 0 0 0 0 0 1
27 2 13 22 94 14 45 60 90 59 80 55 100 100 68 27 69 5 31 96 3 0 0 2 0 0 0 0 0 0 0 0 0 0 0 1 2 49 0 0 0 0 4 47 39
0 12 6 67 92 11 40 99 100 100 100 100 96 89 96 100 93 5 5 6 88 1 0 8 8 0 0 0 0 0 0 0 0 3 0 5 2 91 0 24 0 4 88 95 82
0 2 80 60 49 31 99 100 100 94 95 97 100 50 99 100 83 81 22 72 82 97 12 97 36 6 0 0 0 0 0 0 0 0 2 28 6 51 3 92 59 5 98 69 5
0 4 11 54 30 78 92 86 100 96 100 100 100 100 100 100 100 100 100 100 100 100 81 80 79 99 0 0 0 0 0 0 0 1 34 29 92 97 24 29 82 54 95 97 5
3 39 4 87 56 68 100 81 46 100 100 100 100 100 100 100 100 100 100 100 100 100 100 42 95 99 89 0 0 0 0 0 0 5 5 12 90 100 99 41 44 100 95 68 99
5 34 3 89 98 92 100 82 62 92 97 100 100 100 90 100 97 100 100 100 100 100 43 63 98 98 94 0 0 0 0 0 0 0 17 86 100 100 100 23 100 100 100 99 100
5 5 4 6 76 94 76 85 96 100 100 100 100 100 99 91 97 85 99 98 100 100 100 82 72 100 71 100 8 0 0 0 0 0 5 100 100 100 100 100 100 100 100 65 86
12 26 48 57 95 82 95 90 93 100 98 66 100 95 100 96 100 99 100 97 100 100 100 100 51 97 100 39 2 0 0 0 0 87 8 100 100 100 13 100 100 100 100 100 100
33 75 34 74 92 100 100 94 100 97 86 98 97 97 100 93 100 100 100 100 100 100 100 100 7 97 100 98 8 1 0 0 0 100 67 100 100 25 12 100 100 100 100 100 39
47 26 29 100 100 100 96 100 100 97 87 45 100 98 94 100 100 100 100 100 100 100 100 100 82 100 100 72 4 0 3 0 0 98 71 45 100 34 16 98 100 100 100 100 56
100 98 100 28 100 100 97 91 97 100 100 99 100 78 95 99 100 94 74 99 100 100 100 100 100 8 100 100 74 0 0 0 0 42 94 89 96 5 95 100 100 100 100 100 100

GFSSW_prec_cloud_027.txt.gz
Cloud_Cover
56 92 12 0 50 100 71 100 100 100 100 100 100 100 100 100 100 100 100 100 96 100 100 100 100 100 100 100 100 100 100 100 100 100 100 100 41 100 86 60 39 100 100 98 5
16 1 43 77 100 79 17 100 100 98 5 10 85 100 100 100 100 100 100 100 100 100 100 100 100 100 100 98 78 95 100 100 100 100 100 100 100 81 73 55 74 100 100 92 99
0 0 0 4 18 54 25 100 100 100 98 18 78 100 100 100 100 100 100 100 100 100 100 100 100 100 100 100 100 100 100 100 100 100 98 100 100 100 94 100 100 85 11 52 60
0 0 0 0 0 0 11 28 100 100 100 100 100 100 100 99 51 30 100 100 100 100 100 100 100 100 100 100 100 100 100 100 100 100 84 72 100 100 93 100 94 23 34 2 64
37 0 0 0 0 0 2 0 8 52 100 100 100 100 99 100 79 63 66 100 100 100 100 95 91 100 100 100 100 100 100 96 99 100 79 81 15 43 45 76 5 36 18 2 52
2 0 0 0 0 0 0 0 0 0 0 3 70 100 100 100 100 50 5 10 99 100 92 32 6 59 14 84 68 91 43 95 54 13 44 35 95 29 97 90 46 5 4 17 76
0 0 0 0 0 0 0 0 0 0 0 0 44 15 46 100 100 26 100 6 0 1 73 99 4 53 5 6 37 90 34 46 23 96 98 88 4 42 59 76 15 5 5 82 54
0 0 0 0 4 2 1 0 0 0 0 0 19 2 5 5 5 5 26 39 85 57 3 0 8 10 4 91 68 19 85 5 99 100 54 100 24 80 99 100 7 4 5 15 11
0 0 0 0 0 0 0 0 0 0 0 0 1 1 0 0 0 0 0 0 0 0 3 2 0 0 0 0 14 97 83 100 89 94 100 100 41 100 100 19 5 2 12 4 5
5 4 0 0 0 0 0 0 0 0 0 2 1 15 0 0 0 0 0 0 0 0 0 0 0 0 0 0 0 100 93 31 7 100 98 63 16 11 25 5 0 2 26 4 5
3 0 0 0 0 1 0 0 0 2 70 2 0 0 0 0 0 0 0 0 0 0 0 0 0 0 0 4 24 6 0 1 2 48 99 2 16 98 55 4 0 2 5 4 0
3 5 4 3 6 6 5 5 5 3 1 4 1 0 0 0 0 0 0 0 0 0 0 0 0 0 0 0 0 0 0 0 2 2 100 33 77 5 5 3 2 0 0 0 0
0 0 0 0 0 2 2 5 5 5 36 0 0 0 0 0 0 0 0 0 0 0 0 0 0 1 0 0 0 0 0 0 0 2 95 89 32 0 0 0 0 0 0 0 0
0 0 0 0 0 4 27 5 7 75 6 0 14 8 2 0 0 0 0 0 0 0 0 0 0 0 0 0 0 0 0 0 0 2 31 25 10 0 0 1 0 0 0 2 0
0 0 0 0 2 5 13 31 57 95 8 52 100 52 36 15 88 98 26 0 0 0 0 0 0 0 0 0 0 0 0 0 0 0 0 0 0 0 0 0 0 3 0 0 0
0 6 0 5 24 18 62 67 83 90 98 100 100 70 100 100 100 88 100 56 28 5 0 0 0 0 0 0 0 0 0 0 1 3 2 0 0 0 63 0 0 4 0 0 0
0 0 1 31 38 15 22 100 95 100 100 100 69 98 41 65 100 100 100 100 100 93 5 0 5 3 1 0 0 0 0 0 0 1 0 0 0 3 4 0 3 2 7 0 0
0 21 35 22 26 31 52 100 100 100 89 94 90 59 80 100 100 33 92 99 100 98 46 2 0 0 0 0 0 0 0 0 0 0 0 0 0 91 0 0 0 0 0 0 5
5 10 89 6 2 87 31 100 100 100 100 100 100 100 100 100 100 100 100 100 83 13 100 99 22 0 2 5 0 0 1 4 0 0 0 3 30 5 2 0 0 0 5 36 20
6 50 89 5 11 99 97 100 100 100 100 100 100 100 100 100 100 100 100 100 14 4 20 44 61 0 1 5 3 3 2 1 0 0 1 49 81 73 52 1 5 5 88 26 99
4 88 84 4 41 49 93 82 100 68 100 93 100 100 100 99 38 100 100 93 4 9 96 86 74 10 18 92 0 0 17 0 0 0 12 90 29 95 18 5 55 20 19 84 100
17 73 3 5 37 92 52 59 42 100 100 100 100 100 100 100 100 100 100 100 71 98 78 82 92 88 99 93 5 0 0 0 0 0 5 58 100 5 4 63 100 87 99 100 100
5 61 15 32 68 72 73 73 100 100 87 100 100 100 100 98 100 97 82 100 100 100 100 71 48 100 93 97 41 56 5 1 0 5 11 5 99 7 7 100 89 97 100 100 100
15 23 10 69 87 100 87 82 99 100 100 100 100 100 100 100 100 98 100 100 100 93 97 95 50 91 100 53 98 91 77 6 12 56 53 3 84 5 99 100 100 100 100 100 100
21 77 100 58 81 66 99 98 99 100 99 97 100 98 100 100 100 100 98 92 100 100 100 100 48 91 100 100 100 100 100 100 85 5 35 9 99 97 100 100 100 100 100 100 100
35 20 96 98 99 90 75 88 100 93 100 75 88 100 100 100 100 100 100 100 100 100 100 100 60 98 100 100 84 100 100 100 100 74 14 100 57 100 99 100 91 100 100 81 100
94 60 100 24 99 100 100 100 94 100 57 87 97 97 90 96 90 55 92 100 100 100 100 99 75 93 100 100 58 100 96 100 100 100 49 83 100 42 74 100 100 100 100 94 100

GFSSW_prec_cloud_030.txt.gz
Cloud_Cover
84 100 59 4 14 2 13 12 50 100 100 100 96 67 100 100 100 100 100 100 91 100 58 99 100 100 100 100 100 100 100 100 100 100 100 100 100 100 94 100 100 100 100 100 98
0 2 2 0 97 100 11 0 13 15 94 90 100 20 85 100 100 100 100 100 100 93 97 49 32 69 94 100 100 100 79 99 100 100 100 100 100 100 100 96 98 99 100 100 65
1 0 25 9 26 86 7 0 0 5 4 57 100 100 99 96 100 100 100 100 96 96 100 73 66 31 100 100 100 100 100 100 100 100 100 96 100 100 98 100 100 100 100 100 100
0 0 0 0 1 0 0 0 0 1 0 62 100 100 100 100 97 100 100 100 100 100 100 100 100 100 100 90 100 100 100 100 100 100 95 64 59 100 100 100 100 100 100 98 5
0 0 0 0 0 0 0 0 0 0 0 54 100 100 100 100 46 10 100 100 100 100 100 100 42 93 99 100 100 100 100 98 55 100 100 100 85 100 100 100 100 87 52 32 78
0 0 0 0 0 0 0 0 0 0 0 0 0 39 73 100 100 44 0 4 100 100 99 41 59 86 74 95 91 100 100 100 79 39 100 100 100 100 100 100 100 64 5 5 51
0 0 0 0 0 0 0 0 0 0 0 0 2 2 0 16 100 100 9 45 91 100 5 21 13 98 14 12 36 72 85 7 88 100 100 100 100 91 100 100 43 5 5 5 6
0 0 1 5 2 0 0 0 0 0 0 0 4 0 0 0 1 48 49 74 100 100 37 2 92 20 4 2 69 46 91 3 62 100 100 96 17 94 97 76 3 5 5 63 23
0 0 0 0 3 8 88 45 1 0 0 0 1 0 0 0 0 0 33 80 100 100 100 100 13 3 2 0 0 47 59 71 98 100 15 89 24 94 9 5 2 1 2 5 63
17 0 0 0 0 0 0 5 1 4 1 8 4 12 0 0 0 0 0 0 0 9 12 100 100 49 2 0 1 84 87 100 65 100 64 82 18 64 30 37 5 26 22 16 100
6 0 0 0 0 0 0 0 0 0 31 50 8 5 0 0 0 0 0 0 0 0 0 0 20 22 4 17 17 59 25 0 0 19 81 49 1 70 100 67 81 99 6 7 5
0 3 1 0 0 0 0 0 5 1 2 0 1 0 0 0 0 0 0 0 0 0 0 0 0 8 50 0 0 0 0 0 0 2 37 88 13 1 1 12 12 7 4 0 0
0 0 28 0 0 0 1 64 5 5 50 0 0 0 4 0 4 0 0 0 0 0 0 0 0 0 0 0 0 0 0 0 0 0 0 5 56 0 0 2 4 2 0 0 0
0 0 0 0 9 0 65 16 5 10 43 21 13 51 0 0 0 2 0 0 0 0 0 0 0 0 0 0 0 0 0 0 0 0 0 0 1 0 0 0 0 0 0 0 0
0 0 0 0 0 0 0 10 45 10 82 100 100 100 86 98 99 100 21 0 0 0 0 0 0 0 0 0 0 0 4 0 0 0 0 1 0 0 0 0 0 0 0 0 0
0 0 0 5 18 33 11 62 44 82 100 100 97 100 78 24 10 69 58 23 66 27 1 0 0 0 0 0 0 0 0 0 0 0 11 0 0 0 0 0 0 0 0 0 5
0 0 0 1 5 4 5 99 86 100 100 100 100 100 98 100 99 100 100 100 18 100 38 1 1 0 0 0 0 0 2 0 0 0 0 0 0 0 5 0 0 0 0 1 4
0 20 0 9 1 3 38 95 100 100 100 14 81 80 10 97 100 100 100 10 62 84 91 83 88 0 0 0 0 0 0 0 0 0 0 0 0 0 0 0 0 0 0 0 2
0 3 6 13 4 4 81 100 98 98 97 66 5 6 83 54 2 34 90 99 100 100 96 85 21 38 2 0 22 1 4 0 0 0 0 0 0 0 0 0 0 0 0 0 0
0 1 17 0 5 25 96 24 70 100 98 98 100 86 100 96 100 42 70 87 96 22 52 1 3 56 4 0 1 5 3 0 1 0 0 0 0 0 60 1 0 0 0 0 0
4 35 6 0 22 43 82 94 100 43 99 85 100 100 98 100 45 100 98 100 100 100 84 7 10 90 15 26 0 49 4 32 0 2 0 1 0 71 63 7 0 1 0 5 5
35 81 5 5 21 75 94 96 96 100 100 81 76 100 100 100 92 98 54 10 100 78 4 15 100 24 90 91 49 88 14 30 0 0 0 0 1 5 62 10 0 0 0 5 58
100 17 12 4 66 55 73 98 97 91 99 96 88 94 99 96 100 100 96 100 92 70 19 36 13 51 94 92 3 19 33 7 17 40 0 4 6 100 2 0 0 0 1 14 45
84 54 21 12 75 99 97 100 94 51 100 99 95 39 84 100 97 100 100 100 93 96 40 95 56 83 78 94 100 100 100 2 65 0 11 0 100 11 0 2 5 62 82 27 100
96 98 37 5 74 100 100 100 100 100 62 99 99 100 100 68 100 72 98 52 52 13 48 42 100 94 100 100 100 100 97 87 100 4 15 4 100 80 4 1 0 5 87 99 100
100 100 41 5 62 100 100 100 100 91 100 22 99 94 97 100 99 96 85 75 60 44 77 100 100 93 100 100 100 100 28 60 100 60 0 54 100 100 99 41 4 98 100 100 100
100 100 100 16 70 98 100 100 100 90 42 100 100 100 82 76 75 13 11 8 8 39 96 100 100 100 100 100 100 100 0 15 11 90 6 99 100 19 12 100 51 5 42 97 100

GFSSW_prec_cloud_033.txt.gz
Cloud_Cover
45 0 72 16 27 80 0 28 100 100 100 100 100 100 86 59 100 100 100 100 100 100 100 99 100 100 100 100 100 100 100 100 100 100 100 100 100 100 100 100 100 100 100 100 100
5 94 100 100 100 95 0 26 5 0 21 2 89 100 100 92 80 43 100 100 100 81 99 100 100 100 100 100 100 100 100 100 100 100 100 100 100 100 100 100 100 100 100 100 100
1 12 4 33 95 0 0 0 0 0 0 0 0 99 100 94 100 32 90 100 100 100 99 100 99 96 100 100 100 90 100 100 100 100 100 100 100 100 100 100 99 100 100 100 100
0 2 8 11 0 0 0 0 0 0 0 0 0 0 37 11 99 5 100 100 100 100 100 100 100 100 100 79 100 13 100 96 100 100 100 100 100 100 95 100 100 96 92 97 100
0 2 0 0 0 0 0 0 0 0 0 0 0 0 0 0 77 91 99 99 100 56 96 100 100 100 40 89 100 7 92 26 99 100 96 100 100 100 100 100 100 100 98 38 13
0 0 0 0 0 0 0 0 0 0 0 0 36 55 49 29 0 0 68 100 99 100 100 95 100 100 100 100 33 89 73 5 48 81 96 92 100 100 100 100 100 100 100 95 38
0 0 0 0 0 0 1 0 0 0 0 0 41 99 62 0 0 0 0 24 100 100 100 100 90 49 15 99 93 53 26 5 8 100 100 100 100 100 100 100 100 100 40 84 38
0 0 0 0 0 0 1 5 5 2 0 0 35 36 26 0 0 0 0 0 94 100 100 100 100 96 5 69 96 100 95 3 94 100 100 100 100 100 100 91 49 12 15 69 89
100 2 0 0 0 0 0 0 0 43 77 19 8 13 0 0 0 0 0 0 0 99 100 100 100 5 4 5 41 78 37 73 100 100 100 98 0 5 25 3 0 0 2 5 65
72 0 0 3 22 0 0 0 0 0 0 7 46 27 1 0 0 0 0 0 0 2 78 100 100 100 2 0 0 62 93 22 17 99 100 5 0 0 6 0 0 0 2 4 16
0 2 0 1 7 4 31 0 0 0 2 4 1 1 5 12 5 0 0 0 0 0 0 0 1 4 92 96 98 19 1 0 0 2 70 0 0 0 84 2 2 12 5 5 5
0 0 0 5 0 0 11 1 44 0 0 0 0 0 0 0 5 26 14 0 0 0 0 0 0 0 0 0 0 5 3 6 26 53 74 2 0 0 0 0 1 22 60 18 4
0 0 15 7 0 0 3 60 5 3 0 1 0 1 0 0 0 4 65 81 4 0 0 1 0 0 0 0 0 0 2 79 53 99 100 29 0 0 0 0 0 0 0 0 0
0 0 2 0 0 0 0 1 0 2 4 94 41 50 78 4 0 3 0 6 90 24 4 0 0 0 0 0 0 0 0 0 0 0 0 1 0 0 0 0 0 0 0 0 0
0 0 0 0 0 0 0 0 2 1 96 100 100 100 100 81 56 100 16 70 4 14 96 6 2 0 0 0 0 0 0 0 0 0 0 0 0 0 0 0 0 0 0 0 0
0 0 0 0 1 1 0 1 100 100 100 100 100 100 100 100 100 47 98 45 93 43 0 4 5 2 0 0 0 0 0 0 0 0 0 0 0 0 0 0 0 0 0 0 0
0 0 20 0 4 1 1 87 100 72 100 77 93 55 89 100 78 52 86 97 96 100 1 2 11 5 4 0 0 0 0 0 0 0 0 0 0 0 0 0 0 0 0 0 0
0 0 5 0 4 1 0 5 5 47 6 6 13 86 44 96 100 100 100 100 100 100 100 95 21 1 1 1 0 4 0 1 0 0 0 0 0 0 0 0 0 0 0 0 0
3 4 96 0 0 0 0 5 31 95 74 52 77 5 0 64 32 90 100 89 94 100 29 64 26 85 6 1 0 2 1 0 0 0 0 0 0 0 0 0 0 0 0 0 0
89 40 97 2 3 3 3 10 20 96 6 96 71 34 21 92 50 91 100 100 100 92 79 5 0 14 91 89 0 0 2 1 1 1 2 0 0 0 0 0 0 0 0 0 0
5 46 91 5 1 4 4 70 97 52 64 100 43 8 20 74 38 26 99 7 5 45 86 93 3 36 100 100 15 0 0 4 0 0 0 0 0 0 0 0 1 0 0 0 0
5 96 80 12 5 5 28 70 100 82 44 14 53 50 99 75 98 92 99 5 100 79 97 99 3 13 91 87 100 1 4 80 73 0 0 0 0 0 89 78 3 3 0 0 0
61 95 98 5 45 12 98 100 100 98 59 73 56 3 46 65 72 100 100 97 100 97 34 41 5 7 2 33 100 8 12 85 100 21 3 0 0 0 55 62 90 5 0 0 0
67 27 99 22 100 7 49 83 100 100 100 71 15 4 37 78 5 36 97 57 100 89 84 88 46 5 18 100 100 97 12 100 100 6 0 0 72 5 14 3 65 0 2 0 0
25 18 44 5 100 22 100 100 100 100 22 6 65 100 96 16 5 2 17 33 75 100 100 92 99 41 5 100 100 66 12 99 62 5 0 0 91 1 64 11 3 2 0 0 0
18 15 98 66 100 96 92 100 97 53 55 6 36 100 51 100 87 73 6 5 26 96 100 100 100 98 6 47 93 99 23 91 12 3 0 44 9 100 100 100 2 5 0 0 2
95 81 100 59 98 100 50 100 100 78 58 19 72 56 39 23 5 13 5 4 5 74 100 100 100 100 100 11 51 70 8 90 13 4 1 33 23 100 78 63 76 2 0 0 10

GFSSW_prec_cloud_036.txt.gz
Cloud_Cover
53 58 30 98 47 18 0 0 80 99 100 100 100 100 100 100 96 100 100 100 100 100 100 100 100 98 93 89 97 100 100 100 100 100 100 100 100 100 100 100 100 100 100 100 100
40 14 82 15 0 0 0 1 0 0 20 50 100 100 100 100 97 100 100 100 100 100 100 100 100 99 5 82 88 100 100 100 100 100 100 100 100 100 100 100 100 100 100 100 100
98 100 42 2 0 0 0 0 0 3 0 0 14 100 100 100 81 95 100 100 100 100 100 100 100 99 57 78 80 98 100 100 100 100 100 100 100 100 100 100 100 100 100 100 100
14 7 7 0 0 0 0 0 0 0 0 0 94 100 100 100 100 100 100 100 100 100 48 100 100 82 100 100 100 29 100 100 100 100 100 100 100 100 100 100 100 100 100 100 100
23 30 24 0 0 0 0 0 0 0 0 0 0 83 100 100 100 100 100 100 100 100 94 100 100 100 48 94 100 12 88 100 100 100 100 100 100 100 100 100 100 100 100 100 100
1 3 0 0 0 0 0 0 1 0 0 0 13 90 100 50 93 100 100 100 100 100 100 100 99 100 95 60 100 100 31 44 79 100 100 100 100 93 100 100 100 100 100 100 100
11 0 0 0 0 0 0 2 0 17 53 82 18 100 100 37 0 0 0 3 6 100 100 54 100 100 98 70 82 99 36 5 18 92 100 100 59 97 100 100 100 68 49 6 88
3 0 0 0 2 1 0 0 0 0 52 95 58 95 33 0 0 0 0 0 0 0 82 26 4 99 100 36 34 92 91 4 99 100 100 100 5 99 100 100 84 80 5 5 96
11 0 2 4 100 6 0 0 0 0 0 0 17 36 18 0 0 0 0 0 0 0 0 0 0 0 5 5 5 0 0 0 99 100 100 100 19 100 100 100 31 14 4 22 80
0 0 0 50 35 46 4 0 0 0 0 0 0 4 0 0 4 1 0 0 0 0 0 0 0 0 3 5 1 85 100 91 74 100 100 100 0 12 92 34 0 0 0 4 5
0 4 28 55 22 22 64 17 0 0 0 0 0 0 0 0 0 3 5 0 0 0 0 0 0 0 0 0 1 11 5 5 91 100 100 83 8 5 5 3 0 6 5 5 62
0 0 0 0 0 0 25 0 0 4 2 0 6 3 69 0 0 0 0 14 5 0 1 0 0 0 0 0 0 0 5 20 100 98 43 100 0 5 98 89 0 49 6 62 3
0 0 1 0 0 0 0 0 0 0 0 1 88 37 9 0 0 0 0 0 14 14 4 0 0 0 0 0 0 0 0 35 44 44 18 4 0 0 1 1 1 0 0 0 3
0 0 0 0 0 0 0 0 0 0 22 81 100 100 100 86 59 2 45 2 0 1 5 3 2 0 0 0 0 0 0 0 1 9 4 8 0 0 69 15 44 45 40 5 30
0 0 0 3 1 0 0 0 0 39 100 47 100 100 100 100 100 100 73 97 0 0 0 23 34 1 0 0 0 0 0 0 0 0 0 0 0 0 1 80 100 88 0 0 0
0 0 3 7 0 0 0 0 0 4 12 45 7 100 100 100 100 98 100 82 2 0 0 0 7 56 5 1 0 0 0 0 0 0 0 0 0 0 0 2 46 1 0 0 0
0 0 27 0 0 4 0 0 1 5 0 5 4 62 99 100 100 100 100 100 95 7 4 24 1 5 9 22 3 0 0 0 0 0 0 0 0 0 0 0 0 0 0 0 0
0 0 0 1 0 5 0 0 2 5 60 5 4 2 1 28 80 92 100 100 100 100 100 93 4 2 5 69 87 42 1 0 0 0 0 0 0 0 0 0 0 0 0 0 0
0 0 0 5 1 38 0 5 5 68 58 96 100 18 2 0 5 5 93 100 100 100 87 100 28 100 9 65 69 44 2 0 0 0 0 0 0 0 0 0 0 0 0 0 0
40 2 0 5 5 5 1 4 5 88 65 90 100 90 96 33 4 89 100 100 100 100 99 59 1 88 100 66 96 93 51 28 0 0 0 0 0 0 0 0 0 0 0 0 0
9 0 0 5 6 16 5 57 12 15 69 35 42 60 92 6 49 27 100 46 100 100 100 20 28 19 85 6 1 60 91 52 5 3 0 0 0 0 0 0 0 0 0 0 0
6 0 0 5 10 62 10 5 9 5 5 5 5 5 4 5 98 94 100 100 90 100 100 82 24 5 0 0 74 100 1 7 5 0 0 0 0 0 5 0 0 0 0 0 0
84 8 0 2 10 73 5 70 95 100 54 89 5 5 55 19 5 46 91 100 59 100 88 47 13 5 1 0 36 99 45 5 5 0 0 0 4 9 0 0 3 12 0 0 0
58 27 5 5 5 5 25 62 76 80 29 52 5 5 5 6 29 56 98 68 10 44 98 96 81 5 3 0 78 55 100 38 19 6 0 0 54 4 4 3 5 5 0 0 0
15 5 5 5 9 5 85 98 93 100 75 46 55 44 70 100 83 64 5 5 64 5 38 100 95 5 5 4 24 6 100 100 81 5 1 0 65 57 5 85 12 5 0 0 0
9 17 59 19 17 5 62 34 81 100 92 32 72 90 99 100 100 100 41 5 5 5 5 99 99 43 100 91 34 56 100 100 97 5 3 0 84 100 23 5 11 5 5 2 0
5 37 100 100 90 72 33 82 80 95 27 85 92 100 98 100 96 64 48 5 7 64 100 100 100 95 100 99 97 100 100 99 5 24 0 0 84 96 37 2 1 0 98 67 0

GFSSW_prec_cloud_042.txt.gz
Cloud_Cover
70 99 100 96 26 14 0 0 0 0 0 0 5 3 34 95 100 100 100 100 100 100 99 100 100 96 35 100 100 97 5 76 100 100 100 100 92 7 72 100 100 100 100 100 100
100 100 100 17 35 27 14 0 0 0 0 0 1 3 5 53 67 100 100 100 100 99 99 100 100 100 29 85 100 100 84 100 100 100 100 100 100 36 35 93 100 100 100 100 100
100 78 48 66 0 40 87 47 0 0 0 5 3 22 64 100 100 100 95 100 100 100 88 100 100 100 40 90 17 100 100 100 100 100 100 100 100 100 100 100 100 100 100 100 100
95 30 61 17 70 100 100 52 3 2 0 0 10 100 6 100 100 100 74 96 100 100 100 100 100 43 100 29 100 91 82 100 100 100 100 100 100 100 100 100 100 100 100 100 100
23 12 6 3 1 23 22 52 22 9 69 100 100 100 1 69 100 92 100 100 100 92 100 82 100 97 52 100 100 23 100 100 100 100 100 100 100 89 100 100 100 100 100 100 100
4 1 0 0 1 10 50 18 88 100 100 100 100 97 0 24 0 51 100 100 100 98 55 100 90 100 100 29 48 25 6 68 100 100 100 98 99 13 100 100 100 100 100 83 42
0 0 0 0 0 0 0 2 71 100 100 100 65 10 0 1 0 0 0 45 100 100 100 100 100 98 54 100 99 96 90 96 16 88 100 100 81 41 100 100 100 100 100 100 98
0 0 0 0 0 0 0 0 6 18 4 14 62 2 18 0 0 0 0 0 0 0 0 28 100 99 71 88 54 90 98 14 63 100 100 100 4 100 100 100 100 99 5 5 89
0 5 1 0 0 0 0 0 0 0 0 0 4 19 6 0 0 0 0 0 0 0 0 0 0 60 69 83 89 37 9 6 100 100 82 95 20 100 100 100 100 55 5 4 5
9 8 53 17 10 1 0 0 0 0 0 0 1 28 0 0 0 0 0 0 0 0 0 0 0 0 1 26 23 95 100 75 5 91 91 5 1 53 91 97 17 18 84 92 95
36 11 11 0 0 0 0 0 0 0 0 0 0 0 0 0 0 0 0 0 0 0 0 0 0 0 0 0 4 12 38 5 100 100 100 16 0 5 2 6 6 5 5 20 100
49 47 20 2 0 0 0 0 0 1 0 0 0 0 0 0 0 0 0 0 0 0 0 0 0 0 0 0 0 0 1 4 3 86 88 67 0 5 1 1 2 5 7 12 42
86 100 60 14 0 0 0 0 0 0 0 0 0 0 0 0 0 0 1 0 2 5 11 0 0 0 0 0 0 0 0 0 0 0 0 3 2 2 36 5 7 5 34 100 100
99 100 88 68 0 0 0 0 0 0 2 0 0 0 0 0 0 0 1 7 1 4 92 66 0 1 0 0 3 4 0 0 0 0 0 0 0 5 24 5 5 37 98 100 100
100 100 100 97 9 0 0 0 0 0 0 0 0 0 0 0 0 0 0 0 4 10 16 12 0 0 97 1 0 0 5 0 0 0 0 0 0 0 93 0 3 100 100 45 5
43 100 100 0 9 1 0 0 0 0 0 0 0 0 0 0 0 0 0 1 32 84 74 4 3 96 0 2 0 0 9 20 0 0 0 0 0 0 2 0 3 0 1 0 0
28 59 96 0 0 0 0 0 0 2 0 1 1 0 0 0 0 2 0 1 100 100 100 84 37 3 5 3 1 5 4 55 2 0 0 0 0 0 0 0 0 0 0 0 0
0 0 4 0 0 0 0 0 0 0 0 5 5 0 0 0 2 0 0 74 89 100 100 85 53 8 2 0 0 0 22 3 76 1 0 0 0 0 0 0 0 0 0 0 0
0 0 0 0 0 0 0 4 3 5 4 5 2 1 0 1 2 0 4 12 100 100 100 100 100 100 100 1 0 0 6 2 85 54 3 0 0 0 0 0 0 0 0 0 0
22 2 0 0 0 0 1 3 0 5 74 5 5 6 5 5 3 2 5 5 8 100 100 100 100 100 95 94 23 0 0 2 4 9 4 0 0 0 0 0 0 0 0 0 0
4 0 0 5 0 2 2 5 5 5 6 6 5 85 72 41 5 5 61 60 84 99 100 100 100 100 100 86 98 6 20 5 4 2 4 0 0 0 0 0 0 0 0 0 0
0 5 5 5 0 9 3 5 5 5 55 49 25 90 98 8 57 5 26 86 100 100 87 100 100 100 100 100 94 99 70 42 64 0 0 0 0 0 0 0 0 0 0 0 0
100 54 5 5 6 4 5 5 7 5 5 6 5 79 78 65 93 71 38 37 98 100 89 98 100 100 100 100 100 52 2 0 5 5 0 0 0 0 0 4 5 0 0 0 9
17 5 5 5 10 5 81 69 100 51 5 11 21 98 98 100 100 98 100 84 36 81 49 100 90 100 100 96 46 26 11 4 0 7 0 0 0 0 0 28 45 0 0 0 15
12 9 64 19 5 25 100 100 100 100 90 87 45 98 99 100 100 100 97 88 74 99 31 98 88 70 100 100 39 47 5 4 5 5 5 0 0 0 0 10 43 0 0 2 19
46 59 6 7 5 5 7 5 100 88 100 100 86 100 100 100 100 100 100 100 100 100 74 95 59 24 59 5 5 5 5 5 5 1 0 5 4 0 23 10 6 0 0 4 0
100 63 35 67 5 18 5 5 100 100 63 98 100 100 46 47 100 100 89 18 98 100 100 100 100 100 100 100 99 41 20 1 1 0 0 2 0 5 100 79 6 1 0 5 0

GFSSW_prec_cloud_045.txt.gz
Cloud_Cover
100 98 37 45 8 2 0 0 3 4 0 48 100 100 76 90 100 100 100 100 100 66 53 97 100 100 100 100 99 96 93 100 100 100 100 100 100 90 80 100 99 71 83 100 100
5 17 48 8 31 12 0 2 4 2 2 28 5 100 100 88 100 100 100 100 100 100 39 50 99 100 95 100 93 59 28 100 100 100 100 100 6 23 92 77 14 7 100 97 10
27 11 8 0 0 0 11 0 10 0 8 1 1 97 10 100 100 79 100 100 100 100 100 100 100 51 100 100 100 98 24 100 100 100 100 100 5 5 9 100 8 41 78 96 18
1 0 0 0 0 7 64 67 98 89 60 67 54 0 0 22 78 100 100 100 100 100 100 100 100 80 55 83 100 98 38 100 100 100 100 100 98 5 5 92 100 59 100 100 90
0 0 0 0 0 3 19 31 99 100 100 100 1 0 0 0 0 0 0 3 5 0 5 99 100 100 97 39 100 12 24 100 100 100 100 100 100 100 77 89 84 100 100 100 100
9 6 0 0 5 0 0 0 5 71 100 100 76 21 0 0 0 0 0 0 0 0 0 4 86 72 40 82 58 67 100 100 100 100 100 100 100 100 100 100 99 14 77 100 100
5 12 0 0 0 0 0 0 0 35 33 0 72 40 11 0 0 0 0 0 0 0 0 0 40 74 8 77 27 100 40 91 97 100 100 100 100 30 100 97 13 5 5 5 44
9 9 0 0 2 1 0 0 0 0 0 0 43 21 9 0 0 0 0 0 0 0 0 0 2 81 12 48 14 100 100 38 15 100 100 100 100 100 100 100 100 100 100 90 44
31 91 100 50 11 8 0 0 0 0 0 0 2 0 0 0 0 0 0 0 0 0 0 0 0 0 11 88 29 5 6 25 100 100 100 100 5 94 100 100 100 100 100 92 9
8 100 100 100 8 1 0 0 0 0 2 0 0 3 0 0 0 0 0 0 0 0 0 0 0 0 0 0 4 60 19 5 18 83 100 99 0 57 95 100 6 12 8 75 100
6 100 100 63 14 0 0 0 0 0 0 0 0 0 0 0 0 0 0 0 0 0 0 0 0 0 0 0 0 0 0 4 0 5 5 46 5 36 24 20 5 18 100 100 100
14 100 100 80 3 2 0 0 0 0 0 0 0 0 0 0 0 0 0 0 0 0 0 0 0 0 0 0 0 0 0 0 5 0 4 3 5 5 6 5 43 38 36 36 100
30 100 100 74 0 0 0 0 0 0 0 0 0 0 0 0 0 0 0 0 0 0 1 5 0 0 0 0 0 0 0 0 0 2 0 0 0 0 23 99 60 5 72 51 84
36 100 100 98 0 0 0 0 0 0 0 0 0 0 0 0 0 0 0 0 0 0 0 0 0 0 0 0 0 0 2 0 0 0 0 0 0 0 0 24 100 100 100 100 100
51 100 100 100 19 0 0 0 0 0 0 0 0 0 0 0 0 0 0 0 0 0 3 0 4 4 100 7 6 2 49 2 0 2 0 0 1 0 0 0 3 100 100 100 97
47 100 99 37 77 0 0 0 0 0 0 0 0 0 0 0 0 0 0 0 0 0 0 0 77 55 2 98 100 4 0 2 29 5 5 0 0 0 0 0 0 8 42 5 5
5 35 11 0 0 0 0 0 0 0 0 0 0 0 0 0 0 0 0 0 1 23 67 17 98 84 92 65 100 100 92 0 3 32 2 0 0 0 0 0 0 0 0 6 5
0 0 0 0 0 0 0 0 0 0 0 0 5 0 0 0 0 0 0 0 4 95 59 100 98 90 99 22 36 10 12 4 0 0 0 0 0 0 0 0 0 0 0 1 18
4 4 0 0 0 0 1 5 0 0 5 18 5 5 3 5 5 5 5 2 5 5 78 100 97 100 100 68 81 48 98 1 0 0 0 0 0 0 0 0 0 0 0 0 0
17 5 3 0 0 0 2 5 0 5 5 5 70 6 66 81 43 22 5 2 4 72 87 100 80 97 100 100 100 14 18 78 18 2 0 0 0 0 0 0 0 0 0 0 0
5 5 6 4 0 0 4 4 3 4 5 7 41 74 73 78 70 100 27 2 50 23 10 100 98 100 100 100 100 41 85 99 100 0 1 0 2 0 0 0 0 0 0 0 0
5 72 98 6 5 1 4 5 5 5 5 5 6 11 72 75 90 96 100 99 91 91 82 26 100 100 100 100 100 100 98 99 99 5 0 0 1 0 0 0 0 0 0 0 0
87 99 100 14 5 6 6 5 8 19 23 12 40 54 12 99 82 100 99 100 97 34 53 94 100 100 80 100 100 100 100 37 91 49 65 19 1 0 0 0 0 0 0 0 0
100 92 99 91 6 5 35 26 95 100 24 70 76 6 71 88 99 100 81 81 68 71 90 100 100 100 100 100 100 100 100 50 16 7 24 4 7 2 2 1 0 0 0 0 0
100 74 77 100 6 5 23 36 43 100 80 71 88 43 93 94 100 99 100 96 98 45 75 98 100 100 93 54 89 100 100 40 5 4 4 2 0 97 19 53 4 0 0 0 0
100 89 44 58 36 15 5 5 9 92 87 74 100 64 90 100 93 100 100 100 100 20 60 92 100 93 100 28 5 97 100 19 0 0 5 4 0 100 84 100 41 0 0 0 0
100 100 93 26 100 88 67 24 55 96 11 100 100 94 77 17 73 54 100 99 100 100 100 100 100 100 100 100 97 47 69 4 0 0 0 0 0 98 62 99 4 0 0 0 0

GFSSW_prec_cloud_048.txt.gz
Cloud_Cover
0 0 6 8 4 7 11 12 9 2 0 0 0 0 0 2 1 74 69 100 100 95 100 100 100 100 100 100 100 94 99 100 100 100 100 100 35 70 23 94 95 94 42 81 91
0 0 0 4 0 2 3 7 11 5 0 2 4 5 9 1 0 1 94 83 30 96 98 100 100 100 100 100 100 40 30 100 100 100 100 100 6 16 8 5 24 5 91 100 100
6 3 0 4 5 6 10 10 0 12 34 48 36 12 4 0 0 0 99 100 28 79 100 100 99 100 100 77 89 100 98 100 100 100 100 100 100 7 7 77 89 5 82 57 99
53 22 42 0 1 5 7 4 7 0 7 8 20 1 0 0 0 0 93 100 100 91 100 97 75 10 58 97 100 31 100 100 100 100 100 100 100 92 5 5 5 5 5 4 15
19 36 11 4 4 18 42 19 24 50 39 2 0 0 0 0 0 0 15 100 100 100 100 93 100 100 98 36 100 5 96 100 100 100 100 100 100 100 5 5 5 5 5 5 5
21 97 0 3 10 9 2 2 2 20 24 1 0 0 0 0 0 0 0 36 99 100 99 100 47 69 77 94 45 99 98 81 97 100 100 100 100 100 99 45 56 8 35 5 5
10 44 16 2 12 12 0 0 0 22 6 0 0 0 0 0 0 0 0 0 0 0 4 16 10 96 57 100 100 96 72 62 8 99 99 100 100 13 100 100 68 5 76 100 38
3 0 13 6 8 1 0 0 0 0 0 0 0 0 0 0 0 0 0 0 0 0 0 0 0 1 5 5 28 10 39 15 63 48 100 100 80 100 100 100 98 100 100 100 13
1 20 2 8 2 0 0 0 0 0 0 0 0 0 0 0 0 0 0 0 0 0 0 0 0 0 0 0 0 0 1 2 61 100 100 100 7 99 100 78 52 99 64 94 100
7 6 81 100 2 0 4 0 0 0 0 0 0 0 0 0 0 0 0 0 0 0 0 0 0 0 0 0 0 0 0 0 0 0 20 35 6 77 100 100 37 95 59 85 98
0 18 76 100 11 0 4 0 0 0 0 0 0 0 0 0 0 0 0 0 0 0 0 0 0 0 0 0 0 0 0 0 0 0 0 0 0 100 100 100 69 6 100 75 99
0 0 79 100 1 0 0 0 0 0 0 0 0 0 0 0 0 0 0 0 0 0 0 0 0 1 0 0 0 0 1 0 5 1 0 0 0 35 96 100 79 7 17 38 92
29 72 100 100 0 10 0 0 0 0 0 0 0 0 0 0 0 0 0 0 0 0 0 0 0 5 2 1 0 0 0 5 5 49 2 0 0 0 4 6 99 100 100 100 100
59 98 100 33 7 0 0 0 0 0 1 0 0 1 0 0 2 0 0 0 0 0 0 0 0 2 6 9 5 5 4 5 27 86 4 4 0 0 0 2 5 12 97 100 100
33 100 99 96 0 0 0 0 0 0 0 0 0 0 0 0 0 0 0 0 0 0 4 3 27 100 100 100 100 74 100 80 97 82 100 10 22 0 0 0 0 6 100 100 100
0 93 26 1 0 0 0 0 0 3 0 0 0 0 0 0 0 0 0 0 2 7 5 9 63 93 100 100 100 92 100 100 100 100 91 1 56 0 0 0 0 0 53 100 100
0 21 25 0 0 0 0 0 4 0 0 0 0 2 1 1 0 0 0 0 21 9 100 100 100 53 82 100 100 92 100 100 100 100 66 31 100 0 0 0 0 0 0 0 2
5 17 5 0 0 0 0 0 1 0 0 0 5 5 5 2 2 4 0 5 73 34 35 87 99 96 93 40 78 100 100 100 100 100 19 85 94 0 0 0 0 0 0 0 0
5 5 6 3 4 5 2 2 3 0 4 5 5 5 20 13 5 5 5 6 47 96 94 100 100 92 100 50 99 50 100 100 100 100 99 2 29 0 0 0 0 0 0 0 0
36 72 20 30 69 42 5 0 0 3 5 29 95 64 77 96 51 51 24 90 100 94 99 79 98 99 67 100 100 90 86 100 88 97 100 62 10 0 0 0 3 0 0 0 0
51 80 100 100 95 55 5 1 0 5 5 53 85 97 100 98 100 100 94 67 90 93 100 100 81 76 100 99 100 100 100 100 100 100 100 100 4 3 1 0 1 0 0 0 0
100 100 100 100 8 6 18 5 5 5 74 98 74 87 100 100 100 100 100 100 100 98 100 98 78 57 100 88 100 100 100 100 98 100 60 100 100 3 2 0 5 0 0 0 0
100 100 100 100 57 6 5 5 5 11 82 86 93 99 100 99 100 95 100 100 99 100 100 92 98 80 100 100 100 99 100 100 100 100 7 100 100 4 2 3 5 0 0 0 0
100 100 100 100 86 20 41 42 5 30 16 82 80 92 93 84 94 90 100 93 94 93 53 75 99 100 100 100 100 100 100 100 100 100 100 100 100 98 48 4 24 0 0 0 0
100 100 100 100 100 37 5 5 42 85 70 85 60 100 100 96 90 88 100 96 92 85 68 99 99 100 90 89 99 100 100 100 100 100 100 100 100 100 100 31 8 0 0 0 0
100 100 100 100 100 80 14 5 71 83 64 23 97 80 100 100 100 100 100 100 100 100 100 100 100 100 100 100 18 6 100 100 82 49 67 19 4 5 0 97 44 0 0 0 0
99 85 100 100 100 71 100 94 47 100 41 76 100 88 98 96 93 75 94 80 100 100 100 100 100 100 100 100 100 100 100 74 3 8 43 16 6 0 0 98 4 0 0 0 0